Total_Precipitation_Accumulation
1.69 2.04 2.91 3.70 3.88 3.23 2.69 2.24 1.88 1.89 1.66 1.23 0.89 0.93 1.28 1.66 2.04 2.55 2.69 2.38 1.80 1.59 1.80 2.42 2.87 2.65 2.27 2.13 2.21 2.30 2.22 2.17 2.12 2.03 2.07 1.74 1.62 1.58 1.45 1.31 1.27 1.25 1.29 1.32 1.38 1.38 1.25 1.07 1.01
1.48 2.44 3.50 4.17 3.61 2.67 2.44 2.18 2.12 1.86 1.34 0.96 0.71 0.77 1.01 0.98 0.83 1.57 2.74 2.68 1.80 1.55 1.60 1.95 2.64 2.50 2.22 2.14 2.23 2.27 2.20 2.16 2.15 2.05 1.87 1.60 1.55 1.53 1.51 1.50 1.43 1.32 1.31 1.39 1.42 1.44 1.34 1.22 1.13
1.64 2.90 3.67 3.82 2.68 2.33 2.42 2.28 2.11 1.53 1.03 0.88 0.77 0.67 0.88 1.17 1.19 1.67 2.52 2.06 1.51 1.46 1.58 2.09 2.48 2.32 2.14 1.97 2.02 2.13 2.12 2.08 2.11 2.02 1.75 1.54 1.40 1.38 1.44 1.50 1.44 1.35 1.33 1.30 1.32 1.29 1.24 1.23 1.15
2.01 3.07 3.26 2.84 2.32 1.99 2.01 2.15 1.81 1.45 1.09 0.75 0.70 0.73 0.77 1.28 1.51 1.55 1.64 1.51 1.32 1.36 1.48 1.83 2.19 2.17 2.04 1.85 1.89 1.80 1.74 1.78 1.89 1.82 1.62 1.45 1.46 1.40 1.43 1.43 1.36 1.33 1.30 1.24 1.19 1.15 1.12 1.10 1.03
2.63 3.24 3.07 2.52 2.15 1.99 1.86 1.74 1.57 1.55 1.38 0.94 0.76 0.90 1.12 1.62 1.75 1.69 1.53 1.42 1.29 1.31 1.28 1.50 1.82 1.89 1.88 1.86 1.80 1.74 1.61 1.66 1.68 1.61 1.52 1.43 1.44 1.43 1.40 1.28 1.16 1.15 1.20 1.18 1.19 1.15 1.06 1.00 0.96
3.01 3.07 3.07 2.69 2.23 2.08 2.00 1.70 1.44 1.47 1.32 1.00 0.87 1.07 1.56 2.16 2.19 2.16 1.72 1.60 1.54 1.30 1.19 1.26 1.52 1.59 1.52 1.55 1.78 1.81 1.55 1.62 1.59 1.47 1.42 1.41 1.34 1.34 1.30 1.12 1.08 1.11 1.19 1.20 1.13 1.10 1.02 1.00 0.99
3.09 3.00 2.85 2.41 2.26 2.30 2.09 1.56 1.46 1.43 1.31 0.99 0.85 1.10 1.68 2.48 2.41 2.10 1.70 1.47 1.54 1.40 1.25 1.16 1.12 1.19 1.34 1.54 1.58 1.50 1.53 1.66 1.60 1.39 1.33 1.35 1.18 1.08 1.05 1.06 1.13 1.13 1.20 1.21 1.13 1.05 1.00 1.04 1.10
2.34 2.64 2.72 2.59 2.44 2.57 1.87 1.35 1.23 1.22 1.17 0.73 0.74 1.12 1.57 2.14 2.05 1.91 1.61 1.40 1.39 1.25 1.12 1.01 0.92 0.97 1.06 1.22 1.36 1.38 1.40 1.49 1.47 1.36 1.36 1.37 1.13 0.97 1.01 1.06 1.24 1.24 1.22 1.28 1.20 1.06 1.01 1.05 1.13
2.07 2.62 2.99 2.91 2.37 2.27 1.57 1.48 1.17 1.01 0.95 0.78 0.75 0.88 1.14 1.27 1.40 1.53 1.44 1.25 1.24 1.07 1.00 0.92 0.82 0.85 0.93 1.00 1.06 1.20 1.25 1.29 1.21 1.10 1.14 1.05 0.84 0.81 0.91 0.97 1.29 1.42 1.48 1.43 1.35 1.25 1.13 1.08 1.05
2.22 2.67 2.74 2.18 1.65 1.61 1.53 1.44 1.15 1.21 1.22 1.03 0.91 0.87 1.14 1.23 1.27 1.44 1.39 1.25 1.14 1.08 0.97 0.87 0.86 0.83 0.83 0.82 1.08 1.25 1.09 1.01 0.92 0.93 0.90 0.89 0.91 0.95 0.83 0.93 1.20 1.20 1.24 1.28 1.26 1.26 1.12 0.90 0.77
1.65 2.03 1.94 1.63 1.19 1.16 1.27 1.11 0.90 1.23 1.43 1.16 1.07 1.03 1.15 1.27 1.27 1.29 1.35 1.25 1.11 1.04 0.93 0.81 0.84 0.77 0.71 0.81 0.97 1.16 1.20 1.17 1.12 0.97 0.97 0.94 0.86 0.81 0.70 0.71 0.82 0.85 0.93 0.93 1.02 1.06 0.89 0.73 0.69
1.39 1.37 1.39 1.40 1.01 1.10 1.21 0.99 1.01 1.15 1.20 0.94 0.88 0.93 1.08 1.18 1.19 1.16 1.20 1.18 1.02 0.95 0.96 0.82 0.79 0.70 0.62 0.58 0.66 0.82 0.88 0.89 0.90 0.92 0.85 0.87 0.92 0.90 0.78 0.78 0.85 0.88 0.86 0.96 1.00 1.03 0.92 0.75 0.63
1.47 1.42 1.25 1.20 1.03 1.05 1.10 0.99 1.02 1.15 0.96 0.82 0.89 0.98 1.16 1.21 1.16 1.04 0.97 0.96 0.96 0.96 0.93 0.88 0.82 0.76 0.76 0.72 0.65 0.62 0.66 0.72 0.78 0.86 0.79 0.73 0.80 0.89 0.88 0.85 0.93 0.91 0.92 0.99 0.96 0.84 0.85 0.79 0.67
1.27 1.31 1.34 1.28 1.17 1.03 1.13 1.02 1.04 1.28 1.03 0.89 0.90 1.01 1.14 1.18 1.11 0.97 0.91 0.86 0.79 0.89 0.96 0.94 0.86 0.83 0.75 0.70 0.69 0.70 0.67 0.69 0.73 0.79 0.74 0.67 0.68 0.73 0.85 0.86 0.96 0.91 0.96 1.04 0.93 0.87 0.89 0.87 0.75
1.05 1.38 1.51 1.32 1.21 1.15 1.17 1.35 1.26 1.22 1.06 1.00 0.94 0.96 1.11 1.19 1.11 1.01 0.93 0.88 0.78 0.78 0.88 0.95 0.92 0.91 0.81 0.74 0.75 0.76 0.75 0.69 0.71 0.76 0.67 0.62 0.68 0.69 0.82 0.91 0.95 0.94 0.96 0.98 1.00 0.99 0.94 0.86 0.79
1.26 1.58 1.87 1.40 1.22 1.12 1.32 1.68 1.38 1.26 1.19 1.08 0.89 0.88 0.96 1.05 1.07 1.07 0.94 0.81 0.77 0.75 0.78 0.86 0.86 0.89 0.88 0.85 0.85 0.82 0.77 0.76 0.79 0.80 0.74 0.69 0.69 0.73 0.95 1.02 0.93 0.98 1.09 1.14 1.18 1.14 1.06 0.98 0.97
1.67 1.75 1.69 1.41 1.14 1.04 1.23 1.41 1.30 1.26 1.25 1.12 0.86 0.75 0.79 0.85 0.91 0.95 0.88 0.80 0.74 0.72 0.71 0.73 0.76 0.94 0.95 0.91 0.96 0.95 0.93 0.99 1.01 1.00 0.95 0.87 0.84 0.92 1.11 1.20 1.10 1.09 1.26 1.25 1.16 1.21 1.26 1.21 1.24
1.41 1.24 1.18 1.23 1.05 1.01 1.14 1.11 1.15 1.15 1.11 1.00 0.86 0.74 0.77 0.78 0.76 0.72 0.67 0.72 0.68 0.66 0.64 0.67 0.72 0.85 0.95 1.07 1.15 1.21 1.22 1.23 1.35 1.40 1.36 1.17 1.12 1.16 1.33 1.45 1.41 1.37 1.51 1.53 1.42 1.55 1.60 1.51 1.56
0.92 0.93 1.00 0.97 0.83 0.94 1.02 0.98 1.05 1.04 1.00 0.84 0.74 0.66 0.67 0.65 0.66 0.62 0.57 0.61 0.61 0.57 0.55 0.62 0.75 0.89 1.03 1.15 1.26 1.50 1.66 1.75 1.75 1.73 1.78 1.70 1.49 1.56 1.69 1.68 1.91 1.98 1.97 2.00 1.95 2.12 2.17 1.89 1.74
0.85 0.90 0.94 0.87 0.72 0.82 0.88 0.92 0.96 0.91 0.83 0.67 0.61 0.57 0.52 0.51 0.54 0.52 0.43 0.43 0.46 0.48 0.51 0.57 0.71 0.93 1.15 1.34 1.49 1.66 1.99 2.14 2.12 2.17 2.09 2.02 1.90 1.91 1.83 1.93 2.18 2.24 2.36 2.47 2.32 2.47 2.58 2.27 1.97
0.78 0.78 0.81 0.81 0.83 0.82 0.84 0.98 1.00 0.95 0.79 0.61 0.51 0.46 0.43 0.39 0.42 0.44 0.39 0.34 0.31 0.34 0.40 0.49 0.60 0.82 1.13 1.43 1.64 1.82 2.04 2.29 2.38 2.26 2.22 2.22 2.27 2.31 2.19 2.14 2.29 2.34 2.45 2.68 2.72 2.67 2.81 2.75 2.38
0.87 0.56 0.54 0.60 0.76 0.98 0.82 1.13 1.00 0.91 0.81 0.65 0.55 0.48 0.43 0.41 0.40 0.38 0.36 0.36 0.32 0.34 0.38 0.47 0.59 0.74 0.96 1.22 1.54 1.79 2.06 2.36 2.40 2.34 2.32 2.34 2.40 2.46 2.41 2.36 2.44 2.50 2.50 2.62 2.68 2.67 2.94 3.18 2.91
0.66 0.43 0.45 0.57 0.62 0.69 0.62 0.88 0.92 0.75 0.82 0.72 0.63 0.55 0.47 0.43 0.42 0.37 0.35 0.36 0.38 0.41 0.45 0.56 0.69 0.79 0.95 1.19 1.52 1.83 2.03 2.22 2.39 2.38 2.27 2.19 2.24 2.22 2.17 2.28 2.45 2.48 2.50 2.51 2.68 2.80 3.02 3.07 3.03
0.48 0.49 0.51 0.56 0.64 0.77 0.49 0.66 0.86 0.77 0.73 0.69 0.63 0.58 0.49 0.40 0.42 0.44 0.47 0.47 0.46 0.51 0.60 0.73 0.82 0.98 1.10 1.19 1.31 1.46 1.67 1.96 2.12 2.25 2.24 2.22 2.20 2.08 1.97 2.07 2.16 2.26 2.34 2.34 2.40 2.56 2.73 2.95 3.10
0.46 0.72 0.98 0.97 0.95 0.82 0.40 0.56 0.75 0.63 0.54 0.56 0.55 0.55 0.52 0.49 0.53 0.60 0.67 0.64 0.61 0.63 0.77 0.87 0.96 1.00 1.05 1.02 1.04 1.16 1.32 1.56 1.70 1.82 1.99 2.05 2.09 2.04 1.97 1.92 1.97 2.04 2.10 2.21 2.39 2.41 2.48 2.67 2.87
0.47 0.62 0.99 1.09 0.93 0.75 0.58 0.76 0.77 0.54 0.46 0.48 0.50 0.49 0.49 0.56 0.64 0.79 0.89 0.90 0.85 0.85 0.89 0.89 0.94 0.88 0.88 0.91 0.94 1.00 1.06 1.21 1.33 1.41 1.57 1.69 1.69 1.67 1.63 1.66 1.74 1.88 1.98 2.06 2.21 2.30 2.28 2.36 2.42
0.43 0.38 0.41 0.62 0.63 0.72 0.68 0.78 0.73 0.49 0.42 0.45 0.50 0.51 0.53 0.66 0.79 0.97 1.13 1.17 1.08 1.01 0.95 0.95 0.99 0.93 0.85 0.88 0.96 0.98 1.01 1.01 1.03 1.09 1.09 1.17 1.25 1.27 1.28 1.34 1.48 1.67 1.79 1.84 1.94 2.12 2.10 2.16 2.16
0.29 0.32 0.41 0.70 0.94 0.99 0.81 0.85 0.90 0.66 0.51 0.52 0.61 0.71 0.81 0.95 1.00 1.14 1.26 1.26 1.22 1.24 1.19 1.03 1.00 1.02 0.95 1.02 1.04 0.97 0.93 0.89 0.90 0.95 0.99 1.01 1.09 1.17 1.24 1.25 1.31 1.44 1.53 1.61 1.77 1.91 2.00 2.03 2.02
0.27 0.33 0.49 0.74 0.82 1.13 1.28 1.23 0.87 0.69 0.66 0.66 0.74 1.02 1.10 1.16 1.22 1.24 1.31 1.30 1.19 1.17 1.14 1.11 1.06 1.04 1.05 1.06 1.08 0.96 0.94 0.93 0.92 0.90 0.94 1.02 1.09 1.18 1.23 1.27 1.30 1.31 1.39 1.45 1.54 1.67 1.82 1.85 1.86
0.39 0.51 0.67 1.07 1.05 0.98 1.32 1.41 0.91 0.75 0.77 0.78 0.80 0.85 0.92 1.13 1.21 1.20 1.27 1.21 1.09 1.06 0.95 0.99 1.06 1.07 1.14 1.14 1.06 0.99 1.03 1.04 1.06 1.02 0.96 0.99 1.04 1.03 1.12 1.22 1.19 1.18 1.23 1.32 1.42 1.51 1.57 1.67 1.63